STARLINK-11528, 62521

Orbit data source: Space-Track

STARLINK-11528, 62521 is a payload satellite owned by SpaceX/Seattle (US) in LEO that was launched on Wed, 08 Jan 2025 UTC via an FALCON 9 launch vehicle from the Air Force Eastern Test Range (AFETR). Payload-class satellites include a variety of spacecraft equipped with specific instruments for various scientific and technological missions. These include communications satellites like Starlink; space stations such as the ISS; scientific satellites like the Hubble; Earth observation satellites from companies like Planet Labs, Umbra, and HawkEye 360; GPS; miniature CubeSats for education and research; and military/defense satellites.

Loading next visibility...
Identifier
62521, 2025-004L
Orbit
LEO
Country
Flag of USUS
Related business
Manufacturer
SpaceX/Seattle
Mission
Operational Commercial Communications
Bus & Motor
STARLINK V2MD, Unknown motor
Mass
960 kg wet, ~910 kg dry
Launch date (UTC)
2025-01-08 (10 months ago)
Launch vehicle
FALCON 9
Launch site
Air Force Eastern Test Range (AFETR)
Object type
Payload
Rocket body
Debris
Shape & HBR
Box + 2 Pan, 18.1 m
Radar Cross Section
36.964 m², Large (>1 m²)

Expand to show TLE details & history
Last TLE update: 9 hours ago

TLE from 9 hours ago
0 STARLINK-11528
1 62521U 25004L   25308.80592183  .00169086  00000-0  12931-2 0  9999
2 62521  42.9987 103.8325 0001833 270.1931  89.8726 15.70867032 47568
Epoch: 2025-11-04T19:20Z
TLE epoch observation values (Epoch: 2025-11-04T19:20:31.646Z)
Latitude
-0.00004°
Longitude
129.41293°
Altitude
356.186 km
Speed
7.697 km/s
True Right ascension
06h 55m 19s
True Declination
0° 00' 00"
Sunlit
Object was in full shadow at epoch
Visualization orbit readout
Latitude
Unknown
Longitude
Unknown
Altitude
Unknown
Speed
Unknown
Apparent Right ascension
Unknown
Apparent Declination
Unknown
Sunlit
N/A
Visualization observer readout
Local Sidereal Time
00:16:31
Azimuth
Unknown
Elevation
Unknown
Doppler factor
Unknown
Orbital elements
Apogee altitude
359.634 km
Perigee altitude
357.165 km
Semi-major axis
6,736.537 km
Eccentricity
0.00018
Inclination
42.9987°
RAAN
103.8325°
Arg. of periapsis
270.1931°
True anomaly
89.8936°
Mean anomaly
89.8726°
Eccentric anomaly
89.8831°
Mean motion
3.92544 °/min
Orbital period
91.71 mins
BSTAR
0.0012931
Loading maneuver chart data...
Computing Atmospheric mass density...
Loading historical data...
Loading historical data...
Loading historical data...
Loading historical data...
Loading historical data...
Loading historical data...
Loading historical data...

Documentation

Showing up to 5 results
|